RH
11 16 18 23 25 26 32 26 19 19 23 30 41 38 35 34 37 33 36 44 47 51 56 63 72 72 57 60 63 69 76 76 74 66 68 67 66 68 72 76 78 80 82 83 71 72 76 56 47
14 15 14 26 24 33 32 22 23 19 19 45 50 51 47 33 46 44 42 40 45 50 57 67 70 66 60 59 63 69 72 80 80 75 75 73 72 72 75 83 86 86 88 83 77 75 74 68 59
19 15 18 16 20 28 25 18 20 17 26 38 39 51 36 33 48 46 44 40 45 50 59 67 67 69 62 54 63 69 71 78 85 82 83 86 81 79 88 90 93 92 90 83 73 77 77 78 73
20 24 20 16 16 16 17 15 18 18 28 32 30 30 46 33 38 46 46 47 52 55 61 67 71 74 65 62 54 65 71 80 86 88 92 91 92 92 85 81 79 97 94 80 77 78 80 75 77
21 23 15 18 12 10 10 13 15 16 17 23 37 26 34 32 39 40 45 55 62 65 65 72 74 88 70 70 74 62 74 76 82 90 96 96 90 88 88 89 87 86 93 88 84 81 80 78 72
24 22 17 13 10 8 8 8 11 14 14 21 40 30 32 35 37 40 50 57 62 65 72 75 86 92 78 76 74 71 75 82 90 88 93 92 88 86 92 88 76 88 94 87 85 83 83 86 76
23 22 20 16 13 10 8 7 8 9 10 13 28 26 27 33 34 42 55 64 59 66 70 78 92 93 83 76 77 79 86 88 88 89 95 97 88 81 76 72 81 84 93 92 90 91 94 84 80
24 20 19 18 18 17 12 12 12 13 10 24 41 22 20 34 34 45 60 72 72 76 78 84 93 93 91 85 89 82 88 92 88 99 99 92 92 85 78 82 78 74 71 86 85 94 85 78 76
32 21 16 14 16 13 12 13 20 28 27 39 44 37 30 33 39 52 73 84 84 77 87 94 94 93 93 96 88 83 87 85 85 84 87 97 86 89 87 84 83 79 79 80 81 77 82 78 77
24 20 16 12 14 12 13 15 13 28 26 34 41 33 31 35 41 53 66 78 88 90 86 95 98 96 98 97 93 89 88 85 84 90 88 83 89 90 90 90 90 95 81 71 74 74 86 88 89
21 21 14 15 18 15 16 16 16 17 17 17 18 27 30 36 42 52 70 92 97 100 98 100 99 99 94 96 99 97 91 88 89 91 89 75 63 88 84 88 98 100 86 77 82 88 93 92 93
24 20 18 14 17 22 21 18 17 21 16 15 20 27 30 30 36 40 51 88 98 99 100 98 100 100 100 95 97 98 93 86 82 76 66 56 66 78 84 83 85 88 83 82 100 100 98 97 98
25 16 18 22 29 26 24 22 22 18 19 22 26 24 23 26 31 43 76 95 99 98 98 100 99 98 100 95 92 97 93 94 96 95 88 80 72 75 77 85 87 87 87 88 100 100 100 100 100
17 20 18 19 18 17 17 14 15 20 19 21 34 31 40 35 34 56 81 86 96 98 98 99 100 100 99 100 100 98 96 92 96 96 93 92 86 76 80 80 87 94 93 95 100 100 100 100 100
21 22 18 20 19 19 20 21 21 16 17 24 34 36 45 48 42 42 67 95 93 100 100 100 99 99 100 100 99 100 99 96 98 96 95 93 95 93 90 89 87 92 99 95 100 100 100 100 100
24 25 34 24 23 21 22 25 19 34 28 27 28 33 43 51 57 54 64 86 100 99 99 100 100 100 99 100 100 100 100 100 98 98 100 96 98 100 98 99 98 100 100 100 100 100 100 100 100
30 38 33 31 21 22 25 25 27 31 26 24 38 46 51 56 65 74 79 94 100 100 100 99 100 100 100 100 100 100 100 100 99 99 100 100 100 100 100 97 96 97 100 100 100 100 100 100 100
38 37 32 34 22 24 24 24 21 21 38 45 49 52 54 58 65 72 84 91 95 100 100 100 100 100 100 100 100 100 100 100 100 100 100 100 100 98 93 90 88 92 97 97 100 100 97 89 84
39 41 41 32 26 28 31 29 24 44 45 48 54 58 63 67 70 72 83 93 94 98 99 99 100 100 100 100 100 100 99 99 100 100 100 100 98 94 91 89 86 81 86 84 90 89 84 74 61
40 42 40 35 33 34 30 32 50 45 47 53 60 65 72 77 78 71 81 90 95 100 97 100 100 100 100 100 100 100 100 99 98 97 96 95 90 86 86 86 83 77 70 73 75 72 68 58 49
44 43 38 41 37 36 39 37 52 45 45 49 58 67 76 86 94 70 72 87 90 95 99 98 100 100 100 100 100 100 100 99 96 90 85 88 86 79 77 67 66 64 59 60 61 59 59 58 47
50 38 39 43 50 50 42 42 51 49 45 48 56 67 78 89 99 100 89 86 88 89 94 96 100 100 100 100 100 100 98 93 94 95 93 92 94 84 70 71 50 47 46 46 49 49 46 48 43
43 40 44 48 57 65 50 60 53 42 52 59 58 70 82 89 99 100 99 100 95 94 94 92 92 94 100 100 99 99 98 96 94 88 70 80 80 59 43 38 35 36 36 34 37 37 35 31 23
41 49 56 63 65 86 56 54 73 71 83 69 64 75 87 93 96 100 96 94 98 97 96 94 89 88 94 100 100 100 100 100 98 96 72 49 50 25 21 20 17 16 17 17 19 21 19 14 12
42 51 84 90 93 69 53 62 87 79 79 78 78 82 88 94 100 100 100 95 93 99 97 98 97 98 98 98 99 99 100 99 99 98 95 50 32 24 17 13 11 12 14 15 17 18 16 15 14
52 57 71 72 72 54 54 75 89 81 81 80 82 86 89 96 100 100 98 96 96 95 96 97 97 97 98 98 98 98 98 98 98 98 88 46 28 22 22 17 15 15 16 21 22 21 20 19 21
56 66 54 77 85 80 67 86 82 68 70 71 78 84 92 99 100 99 96 96 96 96 96 96 96 97 96 96 96 96 96 96 96 96 97 90 26 21 22 22 21 19 19 23 26 27 27 26 26
60 54 79 82 85 77 74 80 83 84 83 75 79 87 94 99 100 96 96 96 96 96 96 96 96 96 96 96 96 96 96 96 96 96 94 80 72 29 24 24 23 23 22 21 22 24 25 23 20
70 84 85 81 84 72 66 89 77 82 82 84 86 92 96 99 100 100 96 96 96 96 95 96 96 96 96 96 96 96 96 95 95 94 95 96 70 40 31 29 29 28 27 26 26 25 24 24 22
84 76 76 94 91 80 73 94 79 81 84 87 90 93 96 100 100 100 100 96 95 96 95 95 96 95 96 96 96 96 96 96 95 95 95 95 95 87 48 38 36 36 35 34 34 32 30 29 28
Wind_Speed
13 10 8 6 6 5 17 11 16 12 10 7 9 7 11 8 8 3 2 9 15 20 22 20 21 21 19 17 15 15 16 17 18 18 18 20 21 21 22 22 22 22 24 24 25 24 22 21 22
11 10 10 4 8 14 14 17 19 14 11 7 7 6 8 11 12 9 9 10 15 20 22 23 23 21 20 18 17 16 16 18 18 19 18 20 21 22 23 23 23 24 25 26 25 24 22 22 22
9 12 8 5 13 20 19 16 14 17 12 12 8 8 8 5 10 9 11 14 18 22 24 25 24 21 21 19 19 17 16 17 20 22 22 20 22 23 24 24 24 25 26 25 24 24 23 23 23
7 5 4 9 21 22 28 21 5 11 12 13 14 7 6 16 8 15 16 16 20 23 25 25 24 22 21 20 20 19 17 18 18 18 21 19 22 25 24 27 22 23 24 23 23 24 24 23 22
12 4 9 10 21 25 18 18 19 17 21 15 13 17 8 16 19 16 16 19 22 24 26 26 24 22 22 21 20 21 18 18 19 21 24 19 20 21 23 26 25 21 19 21 23 25 24 23 23
8 4 8 15 21 19 16 23 22 21 22 15 9 20 13 17 16 17 19 22 23 26 27 26 24 21 21 21 20 23 22 20 21 21 23 25 23 21 20 19 20 23 26 26 26 23 23 23 22
10 9 17 18 18 17 15 12 19 19 19 23 15 15 14 19 18 18 22 22 23 28 28 28 25 22 22 22 20 23 22 26 24 22 24 26 21 23 23 23 24 24 24 25 23 23 22 21 21
11 6 16 14 16 26 21 12 11 14 21 11 8 8 16 15 18 20 23 23 23 27 29 29 26 24 24 24 25 24 24 26 28 30 30 26 26 27 24 25 24 24 21 19 19 22 21 21 20
9 9 15 22 19 16 9 9 6 6 8 5 9 15 16 15 12 21 27 27 27 28 31 32 30 27 27 30 31 30 27 25 26 26 27 26 25 25 23 23 22 25 25 22 21 20 21 19 19
12 13 19 15 17 18 12 12 13 7 11 11 11 19 20 19 16 23 30 32 32 31 31 32 32 32 35 35 32 32 30 28 26 25 25 22 21 23 26 26 28 27 27 25 22 24 22 21 21
10 19 18 15 19 17 17 17 19 15 20 19 20 16 19 21 21 24 32 35 36 33 32 36 35 37 38 38 36 34 32 30 27 25 23 21 21 23 27 30 30 30 28 26 25 25 24 24 24
13 16 19 16 15 14 16 21 23 23 27 23 21 16 17 18 22 25 32 39 39 38 35 37 39 38 39 38 35 32 30 28 28 25 24 23 23 24 25 28 31 30 26 24 26 28 28 26 25
15 14 15 16 14 17 20 22 22 22 19 26 24 25 27 25 25 26 26 34 41 42 40 39 41 37 39 38 34 33 29 27 22 22 23 22 24 27 27 27 27 28 26 26 30 30 28 26 23
1 10 13 10 13 16 17 24 20 12 22 23 23 26 21 21 22 21 27 36 42 44 44 41 40 45 46 39 35 34 29 27 23 22 22 22 24 25 26 26 27 28 28 27 28 29 28 26 25
7 11 14 13 17 12 14 15 15 24 21 21 17 17 15 18 21 25 26 29 39 46 46 47 45 41 40 39 38 35 32 29 25 24 24 25 27 27 26 26 26 27 28 29 29 28 28 27 27
6 8 13 3 8 8 11 13 6 8 2 5 6 10 13 15 16 19 23 26 32 42 49 48 45 47 40 36 35 33 30 30 28 26 29 29 28 27 26 25 26 27 28 29 32 31 31 30 28
8 15 16 11 10 2 14 11 4 7 8 13 15 16 16 15 13 12 14 18 24 35 46 50 48 47 42 39 37 35 34 31 29 31 31 31 30 28 26 24 22 22 29 28 30 32 30 30 28
16 13 9 11 4 6 11 13 10 11 19 18 20 20 20 20 19 16 12 15 22 29 39 47 47 44 43 40 36 34 32 32 32 32 32 32 32 29 25 23 22 24 27 27 28 28 29 30 30
18 15 17 13 8 6 14 15 10 14 23 22 23 22 22 24 22 17 10 11 16 22 30 39 46 44 43 40 38 37 35 35 35 33 34 34 32 31 28 26 25 26 29 28 29 32 33 33 31
17 18 17 12 9 10 10 9 14 13 16 22 24 26 28 28 28 21 9 8 11 17 23 31 40 42 40 41 42 40 39 38 36 36 36 35 33 32 31 30 30 30 32 34 36 36 34 32 31
15 17 13 11 2 9 7 10 9 11 21 23 26 24 25 28 31 23 9 5 7 11 17 25 33 38 40 40 40 40 39 38 38 37 36 36 34 33 31 31 32 33 34 36 36 37 36 37 35
16 11 13 10 5 7 2 3 6 7 12 21 28 31 31 31 29 27 17 8 5 7 13 21 27 31 35 35 33 32 35 37 38 38 37 37 36 34 33 32 32 33 35 36 37 37 36 35 35
7 5 9 7 8 2 10 6 7 6 9 19 22 25 27 27 27 27 23 14 6 4 9 16 22 25 29 30 29 29 31 33 33 35 33 36 36 34 34 35 36 36 36 37 37 38 36 33 34
8 7 4 3 3 7 13 10 5 6 11 15 19 23 26 28 27 27 22 17 12 2 5 11 16 19 22 25 26 26 26 26 24 27 28 29 34 34 35 35 34 33 34 34 34 34 34 32 33
13 9 4 5 5 6 6 10 8 6 9 12 15 21 25 27 29 29 28 24 17 12 4 5 11 14 17 19 20 18 18 18 21 22 21 22 25 29 31 34 34 34 34 33 33 33 33 30 31
19 11 6 10 5 3 5 3 5 6 11 13 18 21 25 28 28 29 30 26 21 15 9 4 4 8 10 11 11 10 10 9 9 18 19 18 23 24 23 26 28 31 32 32 32 32 33 31 29
7 8 2 1 3 3 6 5 4 6 10 16 20 24 25 26 27 29 31 29 26 21 14 9 6 7 7 8 8 7 7 5 7 9 12 17 18 20 21 23 25 27 28 29 30 32 32 31 30
2 7 4 3 6 8 4 5 5 6 9 12 17 21 21 23 26 31 31 30 28 26 23 15 10 8 8 7 7 8 9 8 8 11 14 15 16 16 19 20 22 23 25 27 28 28 28 27 27
5 3 3 1 3 5 5 4 3 7 8 9 13 16 18 20 22 24 28 28 28 26 25 23 21 17 12 8 6 5 8 10 13 12 13 16 15 16 16 18 19 19 21 22 23 24 24 25 25
3 6 10 4 5 5 5 4 1 8 10 11 12 14 15 18 19 21 24 25 25 25 24 24 22 20 18 15 10 7 6 7 7 11 15 15 15 16 15 16 17 17 18 19 20 21 21 22 21
Wind_Direction
235 232 213 183 234 232 245 234 249 232 224 216 159 194 208 253 201 256 240 201 192 186 188 190 183 181 184 183 182 184 185 182 179 178 179 177 173 169 166 166 163 160 156 151 146 143 144 135 131
220 207 182 194 236 241 248 237 242 241 243 179 195 215 218 242 232 253 235 199 191 188 184 182 180 183 184 183 182 184 184 186 182 175 175 178 174 167 163 162 161 157 152 148 145 145 142 139 134
204 188 192 219 234 238 251 243 241 236 221 199 212 230 258 245 236 223 215 192 189 190 182 179 181 187 183 183 183 183 183 184 186 184 167 178 171 165 157 154 153 153 149 147 145 144 142 142 137
186 188 251 237 232 235 245 243 202 232 228 232 239 244 238 234 247 222 222 205 189 188 189 186 186 188 185 185 184 183 186 179 180 181 163 172 162 155 158 156 163 151 149 150 149 150 146 143 141
186 217 238 244 247 253 248 263 266 244 250 236 222 251 248 261 247 245 232 205 190 188 190 187 187 187 189 192 192 187 188 180 182 170 160 162 156 149 154 159 162 167 155 150 152 150 147 141 139
192 224 228 242 247 250 258 261 255 250 254 236 222 246 256 250 249 242 222 204 195 191 188 187 186 190 190 189 187 186 187 180 176 179 173 168 162 159 155 155 154 154 157 156 155 151 144 143 144
236 228 249 255 257 250 249 255 244 250 254 247 250 237 252 252 253 237 221 207 201 193 189 186 185 189 188 186 182 184 185 182 174 165 167 166 159 169 166 157 155 152 150 150 150 150 150 150 147
224 248 250 243 250 257 251 231 247 250 256 246 210 248 246 242 247 224 215 207 200 193 190 186 188 190 190 187 185 184 180 180 181 175 170 168 164 165 164 158 157 157 158 163 164 157 156 152 147
199 238 247 241 240 245 230 225 222 220 224 210 219 235 245 260 247 216 207 201 201 197 190 187 187 189 184 185 187 183 182 177 176 182 186 178 181 185 180 172 166 166 168 173 173 164 158 157 153
213 234 247 245 245 261 258 241 249 235 236 245 245 246 250 246 237 219 212 207 204 202 194 190 191 187 187 187 187 185 181 182 181 175 171 180 185 179 174 173 168 163 175 179 181 168 163 158 151
216 244 249 247 255 256 265 258 256 251 253 251 259 262 251 242 231 220 219 212 203 198 193 192 195 194 194 189 188 184 185 187 189 191 196 198 192 183 176 177 176 175 184 178 169 170 169 167 163
242 241 247 255 255 255 250 260 260 253 260 264 261 262 261 254 243 234 224 214 206 198 195 198 194 198 195 194 191 190 190 190 186 186 186 184 185 187 186 186 187 190 191 182 177 178 177 175 172
239 246 253 253 259 265 266 258 255 260 262 262 261 256 254 254 253 240 224 215 211 203 198 198 202 205 198 198 197 195 197 189 186 188 186 186 184 186 186 187 190 191 191 190 182 182 181 182 181
251 241 248 249 257 256 261 262 256 244 252 251 246 252 249 249 248 238 222 221 217 209 205 201 193 201 204 201 200 198 199 201 201 197 194 190 192 190 190 192 192 193 190 195 192 186 186 184 180
258 268 265 246 243 246 251 264 242 257 259 251 248 256 254 246 242 242 237 227 223 212 208 205 204 196 193 195 201 198 202 204 205 205 204 200 195 191 194 196 198 199 193 190 191 187 186 186 177
240 249 261 206 211 224 190 257 49 28 92 285 302 295 293 284 267 248 238 229 228 218 212 210 202 202 202 195 198 199 203 205 209 214 208 205 202 197 199 201 205 204 201 191 190 189 184 183 178
215 260 245 263 213 235 208 276 118 56 357 357 11 6 359 347 322 286 247 228 226 225 220 215 210 208 206 205 206 209 213 220 218 215 209 205 201 204 202 201 204 204 203 197 198 186 189 181 171
251 249 252 255 187 219 254 254 252 342 42 28 17 7 359 353 348 324 274 243 224 232 225 223 216 212 211 213 212 213 215 216 211 208 206 208 202 201 201 202 206 204 199 199 192 188 174 174 172
278 263 261 261 249 272 261 273 289 74 48 28 17 10 2 351 339 337 298 245 233 231 233 227 226 217 216 215 215 214 216 211 207 204 206 204 201 202 200 206 206 204 196 195 190 185 185 180 179
245 250 258 270 265 223 262 265 49 67 62 43 22 12 4 356 349 335 315 255 232 228 235 228 231 226 218 219 217 215 209 209 208 208 209 206 203 202 200 203 205 204 197 192 191 195 191 186 179
234 242 249 249 240 261 280 247 132 119 61 39 26 17 12 8 2 356 333 279 243 229 234 234 232 229 220 216 214 210 206 205 208 207 207 205 202 201 201 201 204 204 201 200 199 199 204 195 188
255 220 233 238 221 254 207 270 137 150 57 28 15 12 9 7 8 15 15 350 296 250 236 239 239 233 224 219 215 212 206 203 205 208 208 207 204 202 200 201 202 203 202 202 202 202 202 204 197
245 156 202 205 218 265 209 236 109 45 19 9 9 10 9 11 13 14 17 7 5 299 253 243 241 233 227 223 220 219 216 212 207 201 201 202 199 196 198 199 200 202 204 204 205 202 202 203 201
140 124 94 116 186 248 217 214 87 20 351 357 7 13 14 14 16 18 25 28 5 342 256 245 243 234 226 223 222 222 225 223 218 204 200 198 195 193 197 197 199 200 204 204 205 206 205 207 204
188 162 197 208 199 251 163 211 75 50 23 15 15 20 22 23 24 21 25 31 28 29 358 262 242 234 216 216 223 224 227 230 222 207 204 213 206 196 194 194 196 199 199 201 204 205 206 207 208
195 190 210 241 206 160 188 226 105 55 61 45 40 35 32 30 30 29 33 38 41 35 42 7 252 207 199 201 203 201 201 205 203 213 188 209 217 210 204 196 195 196 198 201 202 205 208 209 213
174 208 261 254 83 251 132 105 177 75 55 46 43 41 36 35 35 37 43 48 51 53 57 67 102 132 159 166 172 178 187 191 196 185 195 198 217 212 207 203 201 198 198 200 204 207 210 213 216
226 139 149 188 212 229 166 169 107 66 52 47 46 43 38 37 38 44 49 52 57 61 64 68 76 94 114 147 164 169 169 170 189 191 197 208 212 212 211 206 204 200 196 197 201 204 205 208 208
149 190 216 264 224 234 211 123 90 84 73 65 55 51 43 39 38 38 47 50 54 57 59 65 67 67 78 98 126 163 173 176 181 184 200 199 203 209 209 209 209 204 199 198 199 200 199 199 202
68 196 189 213 190 237 271 118 57 97 90 79 64 57 48 42 36 36 37 42 46 48 50 53 55 63 63 59 67 94 149 162 171 205 198 194 198 203 209 210 208 206 203 203 203 203 202 204 204